Weather Roundup
Issued by NWS Corpus Christi, TX

Home | Current Version | Previous Version | Text Only | Print | Product List | Glossary Off
Versions: 1 2 3 4 5 6 7 8 9 10 11 12 13 14 15 16 17 18 19 20 21 22 23 24 25 26 27 28 29 30 31 32 33 34 35 36 37 38 39 40 41 42 43 44 45 46 47 48 49 50

000
ASUS44 KCRP 281410
HRRCRP

SOUTH TEXAS REGIONAL WEATHER ROUNDUP
NATIONAL WEATHER SERVICE CORPUS CHRISTI TX
900 AM CDT TUE APR 28 2015


TXZ229>244-281500-
...CORPUS CHRISTI AREA OBSERVATIONS...

CITY           SKY/WX    TMP DP  RH WIND       PRES   REMARKS
CORPUS CHRISTI PTSUNNY   67  54  63 NW21G29   29.93R
NAS CORPUS CHR CLOUDY    68  61  78 NW26G35   29.92R
ROCKPORT       CLOUDY    69  61  75 N20G26    29.91R
KINGSVILLE NAS PTSUNNY   66  50  56 NW21G29   29.95R
ALICE          CLOUDY    65  46  50 NW20G28   29.97R
FALFURRIAS     CLOUDY    64  45  49 NW15G22   29.97R
$$

...VICTORIA AREA OBSERVATIONS...

CITY           SKY/WX    TMP DP  RH WIND       PRES   REMARKS
VICTORIA       CLOUDY    67  61  81 N12       29.92R
BEEVILLE       FAIR      62  49  60 NW20G25   29.95R
PLEASANTON     SUNNY     60  46  61 NW14G23   30.00R
SAN ANTONIO    MOSUNNY   60  47  61 NW16      29.99R
$$

...LAREDO AREA OBSERVATIONS...

CITY           SKY/WX    TMP DP  RH WIND       PRES   REMARKS
LAREDO         SUNNY     61  42  49 NW21G35   30.08R
COTULLA        SUNNY     61  42  49 NW21G30   30.03R
DEL RIO        SUNNY     60  40  47 NW20G31   30.10R
MCALLEN        PTSUNNY   69  48  47 NW20      29.97R
HEBBRONVILLE     N/A     60  41  49 NW28G38   30.01R
$$

...OTHER TEXAS OBSERVATIONS...

CITY           SKY/WX    TMP DP  RH WIND       PRES   REMARKS
BROWNSVILLE    CLOUDY    69  62  78 NW16      29.90R
HOUSTON        CLOUDY    64  60  87 NE8       29.89R
COL. STATION   LGT RAIN  59  57  93 NW13      29.92R FOG
AUSTIN         PTSUNNY   61  51  70 NW14G26   29.95R
WACO           LGT RAIN  52  51  97 N14       29.99R
FORT WORTH     LGT RAIN  52  50  93 N13       30.03R FOG
WICHITA FALLS  CLOUDY    52  47  83 N15       30.13R
LUBBOCK        PTSUNNY   46  42  86 N12       30.21R
EL PASO        MOSUNNY   50  33  52 N9        30.27R
$$

...MARINE OBSERVATIONS...

STATION/POSITION TIME  SKY/WX   TEMP    WIND        PRES    VSBY  WAVE   SWELL
                                AIR SEA DIR/SP/G                  HT/PER HT/PER
                 (UTC)          (F)     (DEG/KT/KT) (MB)    (MI)  (FT/S) (FT/S)
PORT ARANSAS     1400            69 76  320/ 18/ 22 1013.0R
BUOY 90 E PORT A 1350            73 76  350/ 16/ 17 1010.7R         5/ 6   2/ 8
BUOY 45 SE BAFFI 1350            74 75  360/ 14/ 16 1011.1R         4/ 6   3/ 6
BUOY 200 E PT IS 1350            79 78  350/ 14/ 17 1006.6R         5/ 6   3/ 8
BUOY 15 E GALVES 1350            69 74  350/  8/ 10 1010.2R         4/ 7   3/ 7
$$


USA.gov is the U.S. government's official web portal to all federal, state and local government web resources and services.